SL-14 DEB, 44575

Orbit data source: Space-Track

SL-14 DEB, 44575 is space debris in LEO originally from a launch on Thu, 24 Jun 1993 UTC launched from the Plesetsk Missile And Space Complex (PKMTR). Debris objects in space refer to the collection of defunct objects orbiting the Earth. Examples of debris include non-operational satellites, rocket bodies, and fragments generated from explosions, collisions, or faulty payload assembly.

Loading next visibility...
Identifier
44575, 1993-038H
Orbit
LEO
Country
Flag of CISCIS
Related business
Manufacturer
Unknown
Mission
Spacecraft
Bus & Motor
Unknown
Mass
Unknown
Launch date (UTC)
1993-06-24 (32 years ago)
Launch vehicle
Unknown
Launch site
Plesetsk Missile And Space Complex (PKMTR)
Object type
Payload
Rocket body
Debris
Shape & HBR
Unknown shape, 0.1 m
Radar Cross Section
Small (<0.1 m²)

Expand to show TLE details & history
Last TLE update: 3 days ago

TLE from 3 days ago
0 SL-14 DEB
1 44575U 93038H   25308.93993735  .00000028  00000-0  10792-3 0  9996
2 44575  82.5822 130.5637 0046482 104.2327 256.3929 12.54896448407459
Epoch: 2025-11-04T22:33Z
TLE epoch observation values (Epoch: 2025-11-04T22:33:30.587Z)
Latitude
-0.00001°
Longitude
107.7665°
Altitude
1,455.515 km
Speed
7.131 km/s
True Right ascension
08h 42m 15s
True Declination
0° 00' 00"
Sunlit
Object was in daylight at epoch
Visualization orbit readout
Latitude
Unknown
Longitude
Unknown
Altitude
Unknown
Speed
Unknown
Apparent Right ascension
Unknown
Apparent Declination
Unknown
Sunlit
N/A
Visualization observer readout
Local Sidereal Time
15:51:31
Azimuth
Unknown
Elevation
Unknown
Doppler factor
Unknown
Orbital elements
Apogee altitude
1,477.759 km
Perigee altitude
1,405.065 km
Semi-major axis
7,819.549 km
Eccentricity
0.00465
Inclination
82.5822°
RAAN
130.5637°
Arg. of periapsis
104.2327°
True anomaly
255.87592°
Mean anomaly
256.3929°
Eccentric anomaly
256.13434°
Mean motion
3.13885 °/min
Orbital period
114.69 mins
BSTAR
0.00010792
Loading maneuver chart data...
Computing Atmospheric mass density...
Loading historical data...
Loading historical data...
Loading historical data...
Loading historical data...
Loading historical data...
Loading historical data...
Loading historical data...

Documentation

Showing up to 5 results
|